Willimantic, CT

8:59 AM EST on December 06, 2019 (GMT -0500)
Windham

Weather History for KIJD - November, 2019

Change the Weather History Date:

Thursday, November 21, 2019

  Actual Average Record
Temperature  
Mean Temperature 38 °F -  
Max Temperature 48 °F 49 °F 70 °F (1985)
Min Temperature 28 °F 27 °F 11 °F (1986)
Degree Days  
Heating Degree Days 27    
Moisture  
Dew Point 30 °F    
Average Humidity 77    
Maximum Humidity 92    
Minimum Humidity 48    
Precipitation  
Precipitation 0.00 in - - ()
Sea Level Pressure  
Sea Level Pressure 30.10 in    
Wind  
Wind Speed 3 mph ()    
Max Wind Speed 8 mph    
Max Gust Speed -    
Visibility 10.0 miles    
Events      
Averages and records for this station are not official NWS values.
T = Trace of Precipitation, MM = Missing Value Source: Averaged Metar Reports

Daily Weather History Graph

Daily Weather History Graph

Search for Another Location

Airport or City:

Astronomy

Nov. 21, 2019 Rise Set
Actual Time 6:44 AM EST 4:23 PM EST
Civil Twilight 6:14 AM EST 4:54 PM EST
Nautical Twilight 5:40 AM EST 5:28 PM EST
Astronomical Twilight 5:07 AM EST 6:01 PM EST
Moon 12:30 AM EST (11/21) 1:57 PM EST (11/21)
Length of Visible Light 10h 39m
Length of Day
9h 38m
Waning Crescent, 30% of the Moon is Illuminated
Nov 21
Waning Crescent
Nov 26
New
Dec 4
First Quarter
Dec 12
Full
Dec 18
Last Quarter

Hourly Weather History & Observations

Time (EST) Temp. Windchill Dew Point Humidity Pressure Visibility Wind Dir Wind Speed Gust Speed Precip Events Conditions
12:52 AM 35.1 °F 30.1 °F 30.9 °F 85% 30.07 in 10.0 mi North 5.8 mph - N/A   Partly Cloudy
2:52 AM 33.1 °F 28.7 °F 30.0 °F 89% 30.10 in 10.0 mi North 4.6 mph - N/A   Clear
3:52 AM 33.1 °F 30.0 °F 30.0 °F 89% 30.11 in 10.0 mi NNW 3.5 mph - N/A   Clear
4:52 AM 32.0 °F 28.7 °F 28.9 °F 88% 30.13 in 10.0 mi NW 3.5 mph - N/A   Clear
5:52 AM 32.0 °F 28.7 °F 28.9 °F 88% 30.14 in 10.0 mi NNE 3.5 mph - N/A   Clear
6:52 AM 28.9 °F - 27.0 °F 92% 30.16 in 10.0 mi Calm Calm - N/A   Clear
7:52 AM 33.1 °F - 30.0 °F 89% 30.17 in 10.0 mi Calm Calm - N/A   Clear
8:52 AM 37.9 °F 32.1 °F 28.9 °F 70% 30.19 in 10.0 mi NNW 8.1 mph - N/A   Clear
11:52 AM 45.0 °F 40.6 °F 30.0 °F 56% 30.13 in 10.0 mi NNW 8.1 mph - N/A   Clear
12:52 PM 46.9 °F - 30.0 °F 52% 30.11 in 10.0 mi NNW 5.8 mph - N/A   Clear
1:52 PM 48.9 °F - 30.0 °F 48% 30.09 in 10.0 mi Variable 3.5 mph - N/A   Clear
2:52 PM 48.0 °F - 28.9 °F 48% 30.10 in 10.0 mi West 5.8 mph - N/A   Clear
3:52 PM 46.9 °F - 28.9 °F 50% 30.10 in 10.0 mi West 3.5 mph - N/A   Clear
4:52 PM 39.9 °F - 30.0 °F 68% 30.09 in 10.0 mi Calm Calm - N/A   Clear
5:52 PM 35.1 °F - 30.0 °F 82% 30.10 in 10.0 mi Calm Calm - N/A   Clear
6:52 PM 34.0 °F - 30.0 °F 85% 30.10 in 9.0 mi Calm Calm - N/A   Clear
7:52 PM 33.1 °F - 30.0 °F 89% 30.08 in 10.0 mi Calm Calm - N/A   Clear
8:52 PM 34.0 °F - 30.9 °F 89% 30.07 in 10.0 mi Calm Calm - N/A   Clear
9:52 PM 35.1 °F - 32.0 °F 89% 30.05 in 10.0 mi Calm Calm - N/A   Clear
10:52 PM 34.0 °F - 32.0 °F 92% 30.03 in 10.0 mi Calm Calm - N/A   Clear
11:52 PM 35.1 °F - 32.0 °F 89% 29.99 in 10.0 mi Calm Calm - 0.00 in   Overcast